Location: Chmeln�
(49.6483°N, 14.9871°E)
Time: 15:35:43
(UTC+00:00)

Cosmos 1634 Rocket - Pass Details

Date: 18 September 2020
Orbit: 961 x 991 km, 82.9° (Epoch: 23 October)

Event Time Altitude Azimuth Distance (km) Brightness Sun altitude
Exits shadow 19:34:24 37° 169° (S) 1,444 4.5 -23.4°
Maximum altitude 19:36:55 72° 96° (E) 1,012 3.8 -23.8°
Drops below altitude 10° 19:43:06 10° 13° (NNE) 2,717 6.6 -24.6°
Sets 19:45:38 0° 11° (NNE) 3,672 7.3 -24.9°
